"2010-08-19 00:00:00",83821,5.248,153.7,7.066,0.407,24.66,111.8359,29.62,30.48,12.2,0,111.5,13.04,30.47,115.7
"2010-08-19 00:00:30",83822,5.425,150,5.599,0.498,24.67,111.8359,29.62,30.49,12.37,0,111.5,13.04,30.47,112.0
"2010-08-19 00:01:00",83823,5.608,151.4,2.978,0.371,24.66,111.8359,29.62,30.49,12.35,0,111.5,13.04,30.47,113.4
"2010-08-19 00:01:30",83824,4.953,157.6,7.84,0.437,24.7,111.8359,29.62,30.49,12.45,0,111.5,13.04,30.47,119.6
"2010-08-19 00:02:00",83825,4.954,148.7,10.85,0.525,24.66,111.8359,29.62,30.5,12.38,0,111.5,13.04,30.47,110.7
"2010-08-19 00:02:30",83826,3.661,145.1,3.723,0.3,24.63,111.8359,29.62,30.49,12.37,0,111.5,13.04,30.47,107.1
"2010-08-19 00:03:00",83827,3.767,142,2.43,0.229,24.62,111.8356,29.61,30.48,12.32,0,111.5,13.04,30.47,104.0
"2010-08-19 00:03:30",83828,3.34,146.3,3.826,0.168,24.63,111.8281,29.59,30.48,12.44,0,111.5,13.04,30.45,108.3
"2010-08-19 00:04:00",83829,3.568,157.5,8.87,0.329,24.69,111.8129,29.56,30.48,12.66,0,111.5,13.04,30.41,119.5
"2010-08-19 00:04:30",83830,3.959,169.1,6.662,0.212,24.7,111.811,29.55,30.47,12.86,0,111.5,13.04,30.41,131.1
"2010-08-19 00:05:00",83831,3.301,186.4,6.648,0.252,24.66,111.8079,29.54,30.45,12.62,0,111.5,13.04,30.40,148.4
"2010-08-19 00:05:30",83832,3.584,169.6,5.989,0.228,24.69,111.8031,29.53,30.43,12.52,0,111.5,13.04,30.39,131.6
"2010-08-19 00:06:00",83833,3.52,187.1,12.36,0.414,24.68,111.8104,29.55,30.45,12.49,0,111.5,13.04,30.40,149.1
"2010-08-19 00:06:30",83834,3.873,183,8.25,0.473,24.69,111.8115,29.55,30.44,12.4,0,111.5,13.03,30.41,145.0
"2010-08-19 00:07:00",83835,5.178,180.6,6.329,0.658,24.76,111.8211,29.58,30.45,12.33,0,111.5,13.03,30.43,142.6
"2010-08-19 00:07:30",83836,5.149,175.2,4.221,0.416,24.8,111.8357,29.61,30.46,12.36,0,111.5,13.03,30.47,137.2
"2010-08-19 00:08:00",83837,5.202,170,5.385,0.31,24.83,111.8365,29.62,30.48,12.47,0,111.5,13.03,30.47,132.0
"2010-08-19 00:08:30",83838,5.671,181.9,5.628,0.475,24.86,111.8359,29.62,30.49,12.36,0,111.5,13.03,30.47,143.9
"2010-08-19 00:09:00",83839,5.845,181.7,4.412,0.463,24.83,111.8362,29.62,30.48,12.29,0,111.5,13.03,30.47,143.7
"2010-08-19 00:09:30",83840,5.581,187.4,2.086,0.186,24.84,111.8359,29.62,30.48,12.22,0,111.5,13.03,30.47,149.4
"2010-08-19 00:10:00",83841,5.915,180,2.816,0.141,24.81,111.8359,29.62,30.5,12.25,0,111.5,13.03,30.47,142.0
"2010-08-19 00:10:30",83842,5.773,187.6,6.123,0.335,24.9,111.8382,29.62,30.5,12.3,0,111.5,13.03,30.48,149.6
"2010-08-19 00:11:00",83843,6.231,185.1,3.573,0.337,24.9,111.8424,29.63,30.5,12.27,0,111.5,13.03,30.49,147.1
"2010-08-19 00:11:30",83844,6.107,184.1,3.882,0.407,24.91,111.8421,29.63,30.53,12.27,0,111.5,13.03,30.49,146.1
"2010-08-19 00:12:00",83845,5.814,196.9,3.788,0.381,24.85,111.846,29.64,30.52,12.24,0,111.5,13.03,30.50,158.9
"2010-08-19 00:12:30",83846,5.931,198.6,2.747,0.23,24.84,111.8463,29.64,30.52,12.15,0,111.5,13.04,30.50,160.6
"2010-08-19 00:13:00",83847,5.742,202.1,1.481,0.111,24.78,111.8443,29.64,30.52,12.11,0,111.5,13.04,30.49,164.1
"2010-08-19 00:13:30",83848,5.312,205,2.332,0.288,24.79,111.8418,29.63,30.53,12.21,0,111.5,13.04,30.49,167.0
"2010-08-19 00:14:00",83849,5.373,198.3,4.504,0.19,24.87,111.8404,29.63,30.53,12.23,0,111.5,13.04,30.48,160.3
"2010-08-19 00:14:30",83850,5.645,196.1,3.061,0.154,24.91,111.839,29.62,30.52,12.15,0,111.5,13.04,30.48,158.1
"2010-08-19 00:15:00",83851,6.08,181,3.226,0.307,24.89,111.8404,29.63,30.52,12.24,0,111.5,13.04,30.48,143.0
"2010-08-19 00:15:30",83852,5.411,184.2,3.122,0.273,24.94,111.8394,29.62,30.53,12.28,0,111.5,13.04,30.48,146.2
"2010-08-19 00:16:00",83853,5.736,185.9,3.019,0.202,25,111.839,29.62,30.53,12.33,0,111.5,13.04,30.48,147.9
"2010-08-19 00:16:30",83854,5.937,181.2,4.36,0.257,25.04,111.8396,29.62,30.52,12.41,0,111.5,13.04,30.48,143.2
"2010-08-19 00:17:00",83855,5.626,180.2,5.739,0.142,25.01,111.8387,29.62,30.53,12.47,0,111.5,13.04,30.48,142.2
"2010-08-19 00:17:30",83856,5.334,161.3,3.614,0.213,24.89,111.84,29.63,30.52,12.62,0,111.5,13.04,30.48,123.3
"2010-08-19 00:18:00",83857,5.441,159.2,4.462,0.601,24.86,111.8453,29.64,30.51,12.69,0,111.5,13.04,30.49,121.2
"2010-08-19 00:18:30",83858,5.956,171.4,1.937,0.178,24.94,111.8436,29.64,30.5,12.53,0,111.5,13.04,30.49,133.4
"2010-08-19 00:19:00",83859,5.931,173.4,2.369,0.226,24.99,111.8425,29.63,30.51,12.31,0,111.5,13.04,30.49,135.4
"2010-08-19 00:19:30",83860,6.274,176.4,1.806,0.142,24.97,111.8457,29.64,30.5,12.31,0,111.5,13.04,30.50,138.4
"2010-08-19 00:20:00",83861,5.917,172.8,4.495,0.259,24.97,111.8479,29.65,30.5,12.26,0,111.5,13.04,30.50,134.8
"2010-08-19 00:20:30",83862,5.567,177.8,2.52,0.249,24.99,111.8494,29.65,30.51,12.29,0,111.5,13.04,30.51,139.8
"2010-08-19 00:21:00",83863,5.813,179.7,2.82,0.26,24.98,111.8519,29.66,30.5,12.24,0,111.5,13.04,30.51,141.7
"2010-08-19 00:21:30",83864,5.249,177.3,3.187,0.174,25.01,111.8516,29.66,30.49,12.24,0,111.5,13.04,30.51,139.3
"2010-08-19 00:22:00",83865,5.408,173.5,4.478,0.323,25.01,111.8498,29.65,30.5,12.22,0,111.5,13.04,30.51,135.5
"2010-08-19 00:22:30",83866,5.305,172.1,2.736,0.425,25.02,111.8479,29.65,30.51,12.14,0,111.5,13.04,30.50,134.1
"2010-08-19 00:23:00",83867,5.753,175.8,1.891,0.294,25.03,111.842,29.63,30.49,12.15,0,111.5,13.04,30.49,137.8
"2010-08-19 00:23:30",83868,5.289,173.9,2.552,0.383,24.99,111.8334,29.61,30.48,12.12,0,111.5,13.03,30.46,135.9
"2010-08-19 00:24:00",83869,5.728,176.8,1.33,0.343,24.93,111.8329,29.61,30.5,12.15,0,111.5,13.03,30.46,138.8
"2010-08-19 00:24:30",83870,6.067,177.6,2.189,0.11,25.01,111.8347,29.61,30.49,12.18,0,111.5,13.03,30.47,139.6
"2010-08-19 00:25:00",83871,6.008,176.5,1.825,0.253,25,111.8354,29.61,30.49,12.2,0,111.5,13.03,30.47,138.5
"2010-08-19 00:25:30",83872,5.661,181.9,3.438,0.341,25,111.8367,29.62,30.49,12.21,0,111.5,13.03,30.47,143.9
"2010-08-19 00:26:00",83873,5.319,181.3,3.632,0.241,24.98,111.838,29.62,30.49,12.27,0,111.5,13.03,30.48,143.3
"2010-08-19 00:26:30",83874,4.881,177.5,1.409,0.331,24.99,111.8393,29.62,30.49,12.25,0,111.5,13.03,30.48,139.5
"2010-08-19 00:27:00",83875,4.615,180,2.778,0.273,24.97,111.8404,29.63,30.48,12.25,0,111.5,13.03,30.48,142.0
"2010-08-19 00:27:30",83876,4.542,180.9,3.183,0.269,24.93,111.8393,29.62,30.5,12.25,0,111.5,13.03,30.48,142.9
"2010-08-19 00:28:00",83877,4.857,179.7,3.643,0.317,24.92,111.84,29.63,30.49,12.23,0,111.5,13.03,30.48,141.7
"2010-08-19 00:28:30",83878,5.185,176.1,2.037,0.239,24.94,111.84,29.63,30.48,12.2,0,111.5,13.03,30.48,138.1
"2010-08-19 00:29:00",83879,5.246,179.1,4.169,0.345,24.93,111.8416,29.63,30.49,12.26,0,111.5,13.04,30.49,141.1
"2010-08-19 00:29:30",83880,5.441,175.8,5.41,0.18,24.88,111.8403,29.63,30.51,12.4,0,111.5,13.04,30.48,137.8
"2010-08-19 00:30:00",83881,5.324,170,5.964,0.304,24.88,111.84,29.63,30.49,12.39,0,111.5,13.04,30.48,132.0
"2010-08-19 00:30:30",83882,5.426,176.3,1.794,0.246,24.91,111.8386,29.62,30.48,12.11,0,111.5,13.04,30.48,138.3
"2010-08-19 00:31:00",83883,5.517,175.6,1.723,0.221,24.92,111.8361,29.62,30.48,12.09,0,111.5,13.04,30.47,137.6
"2010-08-19 00:31:30",83884,5.494,173.5,1.302,0.154,24.95,111.8358,29.61,30.48,12.08,0,111.5,13.05,30.47,135.5
"2010-08-19 00:32:00",83885,5.463,175.2,3.797,0.227,24.95,111.8347,29.61,30.49,12.13,0,111.5,13.05,30.47,137.2
"2010-08-19 00:32:30",83886,5.298,184.3,4.905,0.203,24.96,111.835,29.61,30.48,12.16,0,111.5,13.05,30.47,146.3
"2010-08-19 00:33:00",83887,5.668,186.1,2.466,0.193,24.96,111.835,29.61,30.48,12.19,0,111.5,13.05,30.47,148.1
"2010-08-19 00:33:30",83888,5.889,190.3,1.853,0.216,24.97,111.8372,29.62,30.47,12.18,0,111.5,13.05,30.47,152.3
"2010-08-19 00:34:00",83889,5.336,187.1,3.517,0.22,24.94,111.8397,29.63,30.48,12.19,0,111.5,13.05,30.48,149.1
"2010-08-19 00:34:30",83890,5.684,180.6,1.37,0.196,24.88,111.8397,29.62,30.48,12.17,0,111.5,13.05,30.48,142.6
"2010-08-19 00:35:00",83891,6.109,178.9,2.793,0.287,24.9,111.84,29.63,30.49,12.2,0,111.5,13.05,30.48,140.9
"2010-08-19 00:35:30",83892,5.75,171.7,2.667,0.265,24.98,111.8395,29.62,30.5,12.32,0,111.5,13.05,30.48,133.7
"2010-08-19 00:36:00",83893,5.272,172,4.082,0.204,25.11,111.8386,29.62,30.49,12.41,0,111.5,13.05,30.48,134.0
"2010-08-19 00:36:30",83894,5.671,175.2,3.98,0.333,25.18,111.8333,29.61,30.48,12.45,0,111.5,13.05,30.46,137.2
"2010-08-19 00:37:00",83895,5.483,175.3,4.369,0.241,25.22,111.8305,29.6,30.47,12.32,0,111.5,13.05,30.46,137.3
"2010-08-19 00:37:30",83896,5.382,177,2.804,0.208,25.18,111.8305,29.6,30.46,12.32,0,111.5,13.05,30.46,139.0
"2010-08-19 00:38:00",83897,5.212,178.4,3.49,0.146,25.21,111.8303,29.6,30.46,12.27,0,111.5,13.05,30.46,140.4
"2010-08-19 00:38:30",83898,5.086,174.2,3.293,0.181,25.25,111.8269,29.59,30.45,12.28,0,111.5,13.05,30.45,136.2
"2010-08-19 00:39:00",83899,4.792,169.4,2.593,0.32,25.29,111.819,29.57,30.45,12.41,0,111.5,13.05,30.43,131.4
"2010-08-19 00:39:30",83900,4.847,173.1,2.697,0.162,25.28,111.8151,29.56,30.43,12.26,0,111.5,13.05,30.42,135.1
"2010-08-19 00:40:00",83901,5.263,177.6,3.935,0.466,25.29,111.8127,29.56,30.45,12.28,0,111.5,13.05,30.41,139.6
"2010-08-19 00:40:30",83902,5.027,187.9,2.427,0.177,25.31,111.8131,29.56,30.42,12.35,0,111.5,13.05,30.41,149.9
"2010-08-19 00:41:00",83903,5.591,186.1,3.903,0.388,25.29,111.8147,29.56,30.44,12.24,0,111.5,13.04,30.42,148.1
"2010-08-19 00:41:30",83904,6.052,184.9,3.023,0.289,25.28,111.8147,29.56,30.42,12.31,0,111.5,13.04,30.42,146.9
"2010-08-19 00:42:00",83905,6.31,187.3,1.806,0.308,25.27,111.8144,29.56,30.42,12.29,0,111.5,13.04,30.41,149.3
"2010-08-19 00:42:30",83906,5.712,188.4,3.088,0.178,25.28,111.8144,29.56,30.43,12.27,0,111.5,13.04,30.41,150.4
"2010-08-19 00:43:00",83907,5.884,193,2.07,0.143,25.28,111.8147,29.56,30.43,12.15,0,111.5,13.04,30.42,155.0
"2010-08-19 00:43:30",83908,5.868,191.3,1.32,0.219,25.26,111.8149,29.56,30.42,12.07,0,111.5,13.04,30.42,153.3
"2010-08-19 00:44:00",83909,6.251,195.1,1.904,0.179,25.24,111.8149,29.56,30.42,12.1,0,111.5,13.04,30.42,157.1
"2010-08-19 00:44:30",83910,6.06,194.9,3.521,0.189,25.28,111.8147,29.56,30.43,12,0,111.5,13.04,30.42,156.9
"2010-08-19 00:45:00",83911,5.83,196.1,1.448,0.103,25.28,111.8147,29.56,30.43,11.93,0,111.5,13.04,30.42,158.1
"2010-08-19 00:45:30",83912,5.826,190.8,2.22,0.092,25.3,111.8149,29.56,30.42,11.9,0,111.5,13.04,30.42,152.8
"2010-08-19 00:46:00",83913,5.8,189.9,0.951,0.172,25.31,111.813,29.56,30.44,11.9,0,111.5,13.05,30.41,151.9
"2010-08-19 00:46:30",83914,6.009,190.9,1.371,0.141,25.36,111.8133,29.56,30.44,11.81,0,111.5,13.05,30.41,152.9
"2010-08-19 00:47:00",83915,5.839,194.5,2.547,0.183,25.34,111.8133,29.56,30.45,11.84,0,111.5,13.05,30.41,156.5
"2010-08-19 00:47:30",83916,5.72,193,0.968,0.126,25.35,111.8144,29.56,30.45,11.78,0,111.5,13.05,30.41,155.0
"2010-08-19 00:48:00",83917,5.687,193.1,1.224,0.211,25.37,111.8147,29.56,30.46,11.77,0,111.5,13.05,30.42,155.1
"2010-08-19 00:48:30",83918,5.823,193.8,1.086,0.245,25.39,111.8153,29.56,30.43,11.78,0,111.5,13.05,30.42,155.8
"2010-08-19 00:49:00",83919,5.356,192,1.168,0.106,25.41,111.8154,29.56,30.46,11.79,0,111.5,13.05,30.42,154.0
"2010-08-19 00:49:30",83920,5.652,188.9,1.73,0.101,25.42,111.8155,29.56,30.43,11.82,0,111.5,13.05,30.42,150.9
"2010-08-19 00:50:00",83921,5.7,189.3,0.963,0.127,25.42,111.8143,29.56,30.45,11.88,0,111.5,13.05,30.41,151.3
"2010-08-19 00:50:30",83922,5.75,183.4,3.234,0.238,25.41,111.8139,29.56,30.44,11.91,0,111.5,13.05,30.41,145.4
"2010-08-19 00:51:00",83923,5.641,182.4,2.649,0.32,25.34,111.813,29.56,30.45,11.91,0,111.5,13.05,30.41,144.4
"2010-08-19 00:51:30",83924,6.099,183.6,0.841,0.141,25.38,111.8168,29.57,30.44,11.78,0,111.5,13.05,30.42,145.6
"2010-08-19 00:52:00",83925,5.837,182.3,2.105,0.306,25.34,111.8194,29.57,30.44,11.84,0,111.5,13.05,30.43,144.3
"2010-08-19 00:52:30",83926,5.262,187.5,1.419,0.154,25.26,111.8219,29.58,30.45,11.83,0,111.5,13.05,30.43,149.5
"2010-08-19 00:53:00",83927,5.461,185.4,1.717,0.17,25.3,111.8241,29.58,30.45,11.83,0,111.5,13.05,30.44,147.4
"2010-08-19 00:53:30",83928,5.848,185.7,2.221,0.199,25.38,111.8269,29.59,30.46,11.85,0,111.5,13.05,30.45,147.7
"2010-08-19 00:54:00",83929,5.686,183.9,0.941,0.154,25.39,111.8304,29.6,30.46,11.84,0,111.4,13.05,30.46,145.9
"2010-08-19 00:54:30",83930,5.389,183.8,2.432,0.208,25.38,111.8323,29.61,30.44,11.82,0,111.5,13.05,30.46,145.8
"2010-08-19 00:55:00",83931,5.368,179.8,2.5,0.425,25.37,111.832,29.6,30.46,11.85,0,111.4,13.06,30.46,141.8
"2010-08-19 00:55:30",83932,5.573,182,2.12,0.225,25.4,111.8332,29.61,30.46,11.77,0,111.4,13.06,30.46,144.0
"2010-08-19 00:56:00",83933,4.79,183.7,4.278,0.206,25.38,111.8345,29.61,30.45,11.89,0,111.4,13.06,30.47,145.7
"2010-08-19 00:56:30",83934,4.879,176.7,1.447,0.227,25.35,111.8345,29.61,30.46,12.11,0,111.4,13.06,30.47,138.7
"2010-08-19 00:57:00",83935,5.257,175.7,1.654,0.304,25.39,111.8317,29.6,30.45,12.17,0,111.4,13.06,30.46,137.7
"2010-08-19 00:57:30",83936,5.249,184,2.723,0.293,25.43,111.8272,29.59,30.44,11.87,0,111.4,13.06,30.45,146.0
"2010-08-19 00:58:00",83937,5.403,186.2,1.464,0.204,25.47,111.8314,29.6,30.44,11.8,0,111.4,13.05,30.46,148.2
"2010-08-19 00:58:30",83938,5.433,181.9,3.171,0.19,25.44,111.8337,29.61,30.45,11.89,0,111.4,13.05,30.46,143.9
"2010-08-19 00:59:00",83939,5.032,178.1,2.395,0.252,25.43,111.831,29.6,30.45,12.12,0,111.4,13.05,30.46,140.1
"2010-08-19 00:59:30",83940,5.041,178.7,1.832,0.235,25.41,111.8251,29.59,30.43,12.14,0,111.4,13.05,30.44,140.7
"2010-08-19 01:00:00",83941,5.03,179.5,1.817,0.285,25.4,111.8213,29.58,30.43,12.27,0,111.4,13.05,30.43,141.5
"2010-08-19 01:00:30",83942,4.905,177.1,1.561,0.242,25.38,111.8104,29.55,30.42,12.33,0,111.4,13.05,30.40,139.1
"2010-08-19 01:01:00",83943,5.393,181.9,1.755,0.37,25.44,111.8102,29.55,30.41,12.18,0,111.4,13.05,30.40,143.9
"2010-08-19 01:01:30",83944,5.768,182.6,1.954,0.348,25.5,111.8099,29.55,30.42,12,0,111.4,13.05,30.40,144.6
"2010-08-19 01:02:00",83945,6.152,177,3.486,0.199,25.49,111.8102,29.55,30.43,11.96,0,111.4,13.05,30.40,139.0
"2010-08-19 01:02:30",83946,5.853,183.5,1.001,0.359,25.49,111.8102,29.55,30.42,12.02,0,111.4,13.05,30.40,145.5
"2010-08-19 01:03:00",83947,5.84,178.4,1.814,0.392,25.49,111.8102,29.55,30.42,12.07,0,111.4,13.05,30.40,140.4
"2010-08-19 01:03:30",83948,6.183,178.9,0.944,0.219,25.46,111.8105,29.55,30.42,12.1,0,111.4,13.06,30.40,140.9
"2010-08-19 01:04:00",83949,6.43,178.1,1.248,0.164,25.43,111.8102,29.55,30.41,12.18,0,111.4,13.06,30.40,140.1
"2010-08-19 01:04:30",83950,5.841,175.1,1.72,0.165,25.45,111.8102,29.55,30.42,12.1,0,111.4,13.06,30.40,137.1
"2010-08-19 01:05:00",83951,5.372,175.2,1.613,0.091,25.45,111.8102,29.55,30.4,12.12,0,111.4,13.06,30.40,137.2
"2010-08-19 01:05:30",83952,5.425,171.9,1.269,0.241,25.38,111.8102,29.55,30.4,12.25,0,111.4,13.06,30.40,133.9
"2010-08-19 01:06:00",83953,5.636,174.3,2.649,0.169,25.43,111.8066,29.54,30.39,12.42,0,111.4,13.06,30.39,136.3
"2010-08-19 01:06:30",83954,5.881,177,1.338,0.244,25.41,111.7892,29.49,30.4,12.38,0,111.4,13.06,30.35,139.0
"2010-08-19 01:07:00",83955,6.394,174.7,2.751,0.452,25.43,111.7848,29.48,30.39,12.13,0,111.4,13.06,30.34,136.7
"2010-08-19 01:07:30",83956,6.523,174.2,2.425,0.343,25.47,111.7831,29.48,30.37,12.07,0,111.4,13.06,30.33,136.2
"2010-08-19 01:08:00",83957,6.551,180.2,3.905,0.259,25.43,111.7807,29.47,30.38,12.24,0,111.4,13.06,30.33,142.2
"2010-08-19 01:08:30",83958,7.035,178.7,1.691,0.47,25.44,111.7794,29.47,30.37,11.93,0,111.4,13.06,30.32,140.7
"2010-08-19 01:09:00",83959,7.135,175.2,2.829,0.345,25.45,111.7791,29.47,30.36,11.73,0,111.4,13.06,30.32,137.2
"2010-08-19 01:09:30",83960,7.941,178.8,1.55,0.314,25.45,111.78,29.47,30.37,11.65,0,111.4,13.06,30.33,140.8
"2010-08-19 01:10:00",83961,7.668,182.8,1.912,0.244,25.47,111.7791,29.47,30.36,11.58,0,111.4,13.06,30.32,144.8
"2010-08-19 01:10:30",83962,7.404,181.2,1.03,0.349,25.39,111.7788,29.47,30.36,11.65,0,111.4,13.06,30.32,143.2
"2010-08-19 01:11:00",83963,7.183,178.6,1.793,0.357,25.41,111.7791,29.47,30.37,11.76,0,111.4,13.06,30.32,140.6
"2010-08-19 01:11:30",83964,7.268,180,0.746,0.147,25.44,111.7822,29.48,30.35,11.62,0,111.4,13.06,30.33,142.0
"2010-08-19 01:12:00",83965,7.196,180.9,0.6,0.126,25.46,111.7863,29.49,30.35,11.52,0,111.4,13.06,30.34,142.9
"2010-08-19 01:12:30",83966,7.051,180.5,0.521,0.084,25.47,111.7923,29.5,30.36,11.55,0,111.4,13.06,30.36,142.5
"2010-08-19 01:13:00",83967,7.423,178.7,1.013,0.237,25.43,111.7984,29.52,30.37,11.52,0,111.4,13.06,30.37,140.7
"2010-08-19 01:13:30",83968,7.579,177.7,1.798,0.144,25.45,111.8001,29.52,30.38,11.49,0,111.4,13.06,30.38,139.7
"2010-08-19 01:14:00",83969,7.439,176.4,1.168,0.199,25.45,111.8032,29.53,30.4,11.54,0,111.4,13.06,30.39,138.4
"2010-08-19 01:14:30",83970,7.829,176.3,0.691,0.096,25.45,111.8047,29.53,30.38,11.48,0,111.4,13.06,30.39,138.3
"2010-08-19 01:15:00",83971,7.593,177,1.211,0.125,25.46,111.8048,29.54,30.38,11.48,0,111.4,13.06,30.39,139.0
"2010-08-19 01:15:30",83972,7.501,176.4,0.989,0.109,25.46,111.8048,29.54,30.38,11.49,0,111.4,13.06,30.39,138.4
"2010-08-19 01:16:00",83973,7.766,177.4,2.136,0.212,25.47,111.8048,29.54,30.39,11.51,0,111.4,13.06,30.39,139.4
"2010-08-19 01:16:30",83974,7.651,174.9,0.678,0.219,25.48,111.8051,29.54,30.38,11.5,0,111.4,13.06,30.39,136.9
"2010-08-19 01:17:00",83975,8.03,175.4,0.538,0.147,25.51,111.8048,29.54,30.39,11.53,0,111.4,13.06,30.39,137.4
"2010-08-19 01:17:30",83976,8.08,177.8,2.206,0.142,25.49,111.8051,29.54,30.38,11.55,0,111.4,13.06,30.39,139.8
"2010-08-19 01:18:00",83977,7.849,181.4,1.26,0.115,25.51,111.807,29.54,30.38,11.54,0,111.4,13.06,30.40,143.4
"2010-08-19 01:18:30",83978,7.834,181.5,0.769,0.114,25.49,111.8079,29.54,30.37,11.52,0,111.4,13.06,30.40,143.5
"2010-08-19 01:19:00",83979,7.764,180.9,0.773,0.075,25.46,111.8095,29.55,30.38,11.47,0,111.4,13.06,30.40,142.9
"2010-08-19 01:19:30",83980,7.773,180.7,0.589,0.123,25.49,111.8105,29.55,30.35,11.45,0,111.4,13.06,30.40,142.7
"2010-08-19 01:20:00",83981,7.88,179.6,0.736,0.092,25.47,111.8092,29.55,30.38,11.45,0,111.4,13.06,30.40,141.6
"2010-08-19 01:20:30",83982,7.643,178.8,0.842,0.141,25.46,111.809,29.55,30.37,11.48,0,111.4,13.06,30.40,140.8
"2010-08-19 01:21:00",83983,7.751,178.1,0.712,0.077,25.47,111.8066,29.54,30.37,11.45,0,111.4,13.07,30.39,140.1
"2010-08-19 01:21:30",83984,7.492,177.6,0.796,0.104,25.44,111.8024,29.53,30.38,11.46,0,111.4,13.07,30.38,139.6
"2010-08-19 01:22:00",83985,7.589,180.1,0.817,0.151,25.45,111.8005,29.52,30.37,11.45,0,111.4,13.07,30.38,142.1
"2010-08-19 01:22:30",83986,7.666,179.5,0.847,0.094,25.46,111.7948,29.51,30.36,11.45,0,111.4,13.07,30.36,141.5
"2010-08-19 01:23:00",83987,7.491,178.4,1.305,0.202,25.47,111.792,29.5,30.38,11.45,0,111.4,13.07,30.36,140.4
"2010-08-19 01:23:30",83988,7.29,177.9,0.684,0.101,25.44,111.7906,29.5,30.38,11.45,0,111.4,13.07,30.35,139.9
"2010-08-19 01:24:00",83989,7.352,176.3,0.941,0.079,25.46,111.7876,29.49,30.36,11.45,0,111.4,13.07,30.35,138.3
"2010-08-19 01:24:30",83990,7.651,177.7,1.286,0.258,25.48,111.7862,29.49,30.37,11.45,0,111.4,13.07,30.34,139.7
"2010-08-19 01:25:00",83991,7.544,176,0.866,0.17,25.51,111.7842,29.48,30.36,11.43,0,111.4,13.07,30.34,138.0
"2010-08-19 01:25:30",83992,7.739,177.4,1.178,0.163,25.51,111.7831,29.48,30.37,11.43,0,111.4,13.07,30.33,139.4
"2010-08-19 01:26:00",83993,7.79,179.3,1.098,0.123,25.48,111.7828,29.48,30.37,11.44,0,111.4,13.07,30.33,141.3
"2010-08-19 01:26:30",83994,7.509,176.9,1.297,0.18,25.47,111.7808,29.47,30.37,11.44,0,111.4,13.07,30.33,138.9
"2010-08-19 01:27:00",83995,7.303,176.2,1.269,0.083,25.45,111.7805,29.47,30.37,11.43,0,111.4,13.07,30.33,138.2
"2010-08-19 01:27:30",83996,7.134,176.4,1.286,0.163,25.48,111.7805,29.47,30.36,11.42,0,111.4,13.07,30.33,138.4
"2010-08-19 01:28:00",83997,7.329,176.8,0.48,0.098,25.48,111.7808,29.47,30.37,11.42,0,111.4,13.07,30.33,138.8
"2010-08-19 01:28:30",83998,7.047,174.8,0.953,0.17,25.5,111.7805,29.47,30.36,11.43,0,111.4,13.08,30.33,136.8
"2010-08-19 01:29:00",83999,6.86,174.9,0.96,0.247,25.5,111.7805,29.47,30.37,11.43,0,111.4,13.08,30.33,136.9
"2010-08-19 01:29:30",84000,6.993,179.6,1.48,0.114,25.43,111.7811,29.47,30.38,11.45,0,111.4,13.08,30.33,141.6
"2010-08-19 01:30:00",84001,7.223,178.3,1.244,0.161,25.45,111.7809,29.47,30.37,11.45,0,111.3,13.08,30.33,140.3
"2010-08-19 01:30:30",84002,6.991,175.9,1.248,0.228,25.48,111.7834,29.48,30.37,11.44,0,111.4,13.08,30.33,137.9
"2010-08-19 01:31:00",84003,7.06,177.2,1.593,0.102,25.52,111.7837,29.48,30.36,11.44,0,111.4,13.08,30.34,139.2
"2010-08-19 01:31:30",84004,7.11,178.5,1.05,0.151,25.45,111.7856,29.49,30.39,11.44,0,111.4,13.08,30.34,140.5
"2010-08-19 01:32:00",84005,7.308,179.3,0.724,0.07,25.48,111.7884,29.49,30.37,11.47,0,111.4,13.08,30.35,141.3
"2010-08-19 01:32:30",84006,7.378,179,0.747,0.115,25.44,111.7878,29.49,30.36,11.49,0,111.3,13.07,30.35,141.0
"2010-08-19 01:33:00",84007,7.583,180.3,1.172,0.094,25.48,111.7909,29.5,30.37,11.52,0,111.3,13.07,30.35,142.3
"2010-08-19 01:33:30",84008,7.436,177.3,1.073,0.129,25.49,111.7944,29.51,30.36,11.47,0,111.3,13.07,30.36,139.3
"2010-08-19 01:34:00",84009,7.371,177.7,0.718,0.082,25.51,111.7958,29.51,30.37,11.47,0,111.3,13.07,30.37,139.7
"2010-08-19 01:34:30",84010,7.466,177.9,0.694,0.127,25.48,111.7978,29.52,30.34,11.49,0,111.3,13.07,30.37,139.9
"2010-08-19 01:35:00",84011,7.533,179,1.092,0.07,25.46,111.7949,29.51,30.36,11.45,0,111.3,13.07,30.36,141.0
"2010-08-19 01:35:30",84012,7.573,180.5,0.788,0.08,25.45,111.7886,29.49,30.34,11.47,0,111.3,13.07,30.35,142.5
"2010-08-19 01:36:00",84013,7.384,178.9,0.765,0.102,25.44,111.783,29.48,30.35,11.46,0,111.3,13.07,30.33,140.9
"2010-08-19 01:36:30",84014,7.493,177.8,0.711,0.163,25.47,111.7838,29.48,30.36,11.45,0,111.3,13.07,30.34,139.8
"2010-08-19 01:37:00",84015,7.532,176.6,0.793,0.11,25.51,111.7832,29.48,30.34,11.43,0,111.3,13.07,30.33,138.6
"2010-08-19 01:37:30",84016,7.466,176.7,0.68,0.102,25.51,111.7829,29.48,30.34,11.41,0,111.3,13.07,30.33,138.7
"2010-08-19 01:38:00",84017,7.192,177.2,1.272,0.154,25.45,111.783,29.48,30.34,11.46,0,111.3,13.08,30.33,139.2
"2010-08-19 01:38:30",84018,7.18,176.8,0.82,0.209,25.52,111.7818,29.48,30.34,11.43,0,111.3,13.08,30.33,138.8
"2010-08-19 01:39:00",84019,7.264,176.3,0.527,0.116,25.52,111.7832,29.48,30.33,11.4,0,111.3,13.08,30.33,138.3
"2010-08-19 01:39:30",84020,7.252,176.4,0.712,0.104,25.52,111.7838,29.48,30.35,11.4,0,111.3,13.08,30.34,138.4
"2010-08-19 01:40:00",84021,7.154,177,0.632,0.138,25.52,111.7838,29.48,30.34,11.4,0,111.3,13.08,30.34,139.0
"2010-08-19 01:40:30",84022,7.081,177.2,0.754,0.094,25.47,111.7849,29.48,30.35,11.43,0,111.3,13.08,30.34,139.2
"2010-08-19 01:41:00",84023,6.939,176.8,0.977,0.097,25.49,111.7841,29.48,30.35,11.43,0,111.3,13.08,30.34,138.8
"2010-08-19 01:41:30",84024,6.904,177.8,1.547,0.132,25.47,111.7841,29.48,30.35,11.44,0,111.3,13.08,30.34,139.8
"2010-08-19 01:42:00",84025,6.713,179.4,0.696,0.106,25.48,111.7845,29.48,30.35,11.48,0,111.3,13.08,30.34,141.4
"2010-08-19 01:42:30",84026,6.782,180.6,1.175,0.086,25.46,111.7851,29.48,30.35,11.47,0,111.3,13.08,30.34,142.6
"2010-08-19 01:43:00",84027,6.742,179.2,1.843,0.079,25.45,111.7842,29.48,30.35,11.48,0,111.3,13.08,30.34,141.2
"2010-08-19 01:43:30",84028,6.547,176.8,1.005,0.113,25.46,111.7823,29.48,30.34,11.48,0,111.3,13.08,30.33,138.8
"2010-08-19 01:44:00",84029,6.374,179.3,1.022,0.181,25.45,111.7826,29.48,30.33,11.49,0,111.3,13.08,30.33,141.3
"2010-08-19 01:44:30",84030,6.309,181.7,0.885,0.195,25.5,111.7833,29.48,30.33,11.49,0,111.3,13.08,30.33,143.7
"2010-08-19 01:45:00",84031,6.218,182.3,1.094,0.117,25.52,111.7833,29.48,30.34,11.48,0,111.3,13.08,30.33,144.3
"2010-08-19 01:45:30",84032,6.249,183.7,0.852,0.077,25.55,111.7836,29.48,30.34,11.48,0,111.3,13.08,30.34,145.7
"2010-08-19 01:46:00",84033,6.167,184,0.499,0.074,25.54,111.7845,29.48,30.33,11.48,0,111.3,13.08,30.34,146.0
"2010-08-19 01:46:30",84034,6.19,184.9,1.615,0.145,25.5,111.7845,29.48,30.33,11.51,0,111.3,13.08,30.34,146.9
"2010-08-19 01:47:00",84035,6.414,182.9,1.935,0.191,25.46,111.7842,29.48,30.32,11.58,0,111.3,13.08,30.34,144.9
"2010-08-19 01:47:30",84036,6.252,189,0.767,0.061,25.49,111.7694,29.44,30.29,11.58,0,111.3,13.08,30.30,151.0
"2010-08-19 01:48:00",84037,6.231,187.9,0.486,0.077,25.59,111.7593,29.42,30.3,11.56,0,111.3,13.08,30.27,149.9
"2010-08-19 01:48:30",84038,6.198,187.7,0.519,0.096,25.57,111.7587,29.42,30.29,11.52,0,111.3,13.08,30.27,149.7